Regional Weather Roundup
Issued by NWS Upton, NY

Home | Current Version | Previous Version | Text Only | Print | Product List | Glossary On
Versions: 1 2 3 4 5 6 7 8 9 10 11 12 13 14 15 16 17 18 19 20 21 22 23 24 25 26 27 28 29 30 31 32 33 34 35 36 37 38 39 40 41 42 43 44 45 46 47 48 49 50
000
ASUS41 KOKX 220508
RWROKX

REGIONAL WEATHER ROUNDUP
NATIONAL WEATHER SERVICE NEW YORK NY
1200 AM EST WED NOV 22 2017

NOTE: "FAIR" INDICATES FEW OR NO CLOUDS BELOW 12,000 FEET WITH NO
SIGNIFICANT WEATHER AND/OR OBSTRUCTIONS TO VISIBILITY.

NYZ071-072-176-178-NJZ106-104-220600-
NEW YORK CITY METRO AREA

CITY           SKY/WX    TMP DP  RH WIND       PRES   REMARKS
Central Park   CLOUDY    54  40  59 VRB6      30.04F
Bronx Bot Gard   N/A     54  39  58 SW3       30.04F
Bronx Lehman C   N/A     54  32  43 SW7         N/A
LaGuardia APRT CLOUDY    53  41  63 S9        30.02F
Queens College   N/A     52  32  46 S8          N/A
Kennedy INTL   CLOUDY    48  43  82 S8        30.05S
Breezy Point     N/A     50 N/A N/A S7          N/A
Brooklyn Coll    N/A     52  32  46 S5          N/A
Staten Island    N/A     50  32  50 S5          N/A
Newark/Liberty CLOUDY    49  40  71 CALM      30.02F
Teterboro      CLOUDY    46  39  76 CALM      30.02F
$$

NYZ177-179-078>081-220600-
LONG ISLAND NEW YORK

CITY           SKY/WX    TMP DP  RH WIND       PRES   REMARKS
Jones Beach      N/A     52 N/A N/A W5          N/A
Wantagh          N/A     52  32  46 W3          N/A
Matinecock PT    N/A     54 N/A N/A SW12        N/A
Farmingdale    CLOUDY    49  43  80 CALM      30.04F
MacArthur/ISP  CLOUDY    53  50  89 SW5       30.03F
Shirley        MOCLDY    55  51  86 SW8       30.05F
Mt Sinai Harb    N/A    N/A N/A N/A S6          N/A
Westhampton    MOCLDY    53  48  83 SW3       30.06F
East Hampton   MOCLDY    55  50  85 SW6       30.05S
Southold         N/A     52  32  46 SW7         N/A
Montauk          N/A     58  52  80 SW7       30.06F
$$

NYZ052-065-067-220600-
HUDSON VALLEY

CITY           SKY/WX    TMP DP  RH WIND       PRES   REMARKS
White Plains   PTCLDY    42  39  89 CALM      30.01F
Larchmont Harb   N/A     52 N/A N/A S9          N/A
Croton On Huds   N/A     48 N/A N/A S1          N/A
Somers           N/A     46  32  57 SW5         N/A
Brewster         N/A     39  32  75 CALM        N/A
Newburgh       CLEAR     37  32  81 CALM      30.00F
Montgomery     PTCLDY    31  29  92 CALM      29.98F
Suffern          N/A     43  32  65 CALM        N/A
Poughkeepsie   CLOUDY    33  27  78 CALM      29.99F
Albany         PTCLDY    46  29  51 S14G22    29.95S
$$

NJZ001-105-106-008-010-013-015-019>022-104-220600-
NEW JERSEY

CITY           SKY/WX    TMP DP  RH WIND       PRES   REMARKS
Newark/Liberty CLOUDY    49  40  71 CALM      30.02F
Teterboro      CLOUDY    46  39  76 CALM      30.02F
Caldwell       CLOUDY    37  33  85 CALM      30.03F
Somerville     CLOUDY    33  31  92 CALM      30.00F
Linden         FAIR      44  37  73 CALM      30.03F
Perth Amboy      N/A     48 N/A N/A E3          N/A
Sussex         CLOUDY    33  31  92 CALM      30.00F
Andover          N/A     34  32  92 CALM      30.00F
Trenton        CLOUDY    45  38  76 SE3       30.01F
Millville      CLOUDY    54  48  80 CALM      30.03F
Atlantic City  CLOUDY    59  52  77 S10G22    30.03F
Wrightstown    NOT AVBL
Toms River     CLOUDY    48  44  86 CALM      30.04F
Belmar         CLOUDY    51  43  74 SW5       30.05S
$$

PAZ047>061-062-071-220600-
EASTERN PENNSYLVANIA

CITY           SKY/WX    TMP DP  RH WIND       PRES   REMARKS
Philadelphia   CLOUDY    52  42  69 S6        30.02F
Allentown      CLOUDY    35  29  78 CALM      29.99F
Scranton       PTCLDY    42  35  76 SE3       29.95F
$$

CTZ002-004>006-009-010-012-RIZ004-006-007-MAZ004-011-015-220600-
SOUTHERN NEW ENGLAND
 IN CT

CITY           SKY/WX    TMP DP  RH WIND       PRES   REMARKS
Bradley INTL   CLOUDY    48  39  71 S9        30.02F
Hartford       CLOUDY    47  39  74 CALM      30.02F
Danbury        CLOUDY    38  35  89 CALM      30.02F
Wtrbury/Oxford CLOUDY    44  38  79 CALM      30.02F
Norwalk Harbor   N/A     52 N/A N/A SW14        N/A
Bridgeport     CLOUDY    54  45  71 SW9       30.02F
Meriden        CLOUDY    38  36  92 CALM      30.03F
New Haven      CLOUDY    51  44  77 S5        30.03F
Chester        FAIR      50  46  87 VRB5      30.04F
Groton         CLOUDY    53  47  79 W5        30.04F
Wilimantic     CLOUDY    47  40  76 CALM      30.04S

 IN RI

CITY           SKY/WX    TMP DP  RH WIND       PRES   REMARKS
Providence     CLOUDY    52  46  80 SW9       30.05F
Block Island   CLOUDY    56  52  86 SW10      30.06F
Westerly       MOCLDY    54  51  90 SW3       30.06S
 IN MA

CITY           SKY/WX    TMP DP  RH WIND       PRES   REMARKS
Boston         PTCLDY    50  39  66 SW7       30.03R
Worcester      CLEAR     47  35  63 SW13G22   30.00R
Westfield      CLEAR     43  38  82 S6        30.01S
Provincetown   CLOUDY    53  48  83 SW13      30.07R
Nantucket      CLOUDY    56  52  86 S16       30.09S
$$

ANZ330-335-338-340-345-350-353-355-220600-
COASTAL MARINE OBSERVATIONS


STATION/POSITION TIME  SKY/WX   TEMP    WIND        PRES    VSBY  WAVE
                                AIR SEA DIR/SP/G                  HT/PER
                 (UTC)          (F)     (DEG/KT/KT) (MB)    (MI)  (FT/S)
NY HARB ENTRANCE 0350            57 58  230/ 10/ 12 1016.6          5/ 7
20 S FIRE ISLAND 0350            60 57  220/ 17/ 19 1017.1          7/ 7
GREAT SOUTH BAY  0430            50 46  240/  4/  8   N/A
HUDSON CANYON    0350            62 59  190/ 17/ 21 1018.3          7/ 7
KINGS POINT      0442            52 51  210/  6/  7 1017.6
EXECUTION ROCKS  0430            53     180/ 10/ 12   N/A
WESTERN LI SOUND 0349            54     210/ 14/ 17   N/A           1/ 3
CENTRAL LI SOUND 0430            56     230/ 14/ 16   N/A           2
ROBBINS REEF     0442            52     190/  4/  5 1017.3
$$


>>>>>>>>>>>>>>>>>>>>>>>>>>>> KEY <<<<<<<<<<<<<<<<<<<<<<<<<<<
>                                                          <
>     SKY/WX - Sky Condition/Present Weather               <
>     TMP    - Temperature in Fahrenheit                   <
>     DP     - Dew Point in Fahrenheit                     <
>     RH     - Relative Humidity in Percent                <
>     WIND   - Direction (from) and Speed in MPH           <
>     PRES   - Mean Sea Level Pressure (inches of Hg)      <
>     WCI    - Wind Chill Index                            <
>     VSB    - VISIBILITY IN MILES                         <
>     HX     - HEAT INDEX                                  <
>     TC     - TEMPERATURE IN CELSIUS                      <
>     VRB    - VARIABLE WIND DIRECTION                     <
>                                                          <
>>>>>>>>>>>>>>>>>>>>>>>>>>>> KEY <<<<<<<<<<<<<<<<<<<<<<<<<<<



USA.gov is the U.S. government's official web portal to all federal, state and local government web resources and services.